DELTA 2 R/B(1)

Last updated on Sun Jun 21 2026 00:02:15 GMT+0000 (Coordinated Universal Time)

1 20453U 90008B 26171.43537697 .00078030 00000+0 56665-3 0 9990 2 20453 35.5993 213.9199 0064613 145.5981 214.8966 15.69273416942215
UTC large
Height (km)
Speed (km/s)
/
Latitude / Longitude
Inclination (degrees)
Orbital Period (minutes)
Azimuth
Elevation
Range (km)
Doppler Factor

Next 0 passes for location: London (51.5072 / 0.1276)

No passes found over London.
DELTA 2 R/B(1)